This demonstration page uses our WeatherBlox Daily Observations layout. Learn more.

Left ArrowRight Arrow

39.01783, -85.05884

Hourly Observations for March 7, 2020

Temp ( °F °C ) Dew Point ( °F °C ) Humidity (%) Winds ( mph kmh ) Pressure ( in mb ) Visibility ( mi km ) Precip ( " mm )
12:52 am 00:52 Cloudy 33 0.6 24 -4.4 70 70 NNW 10 17 30.46 1032 10 16 0.00 0.00
1:20 am 01:20 Cloudy 33 0.6 24 -4.4 70 70 N 13 20 30.48 1032 10 16 0.00 0.00
1:52 am 01:52 Cloudy 33 0.6 24 -4.4 70 70 NNW 10 17 30.47 1032 10 16 0.00 0.00
2:52 am 02:52 Cloudy 33 0.6 23 -5 66 66 N 9 15 30.48 1032 10 16 0.00 0.00
3:31 am 03:31 Cloudy 32 0 22 -5.6 66 66 NNW 8 13 30.51 1033 10 16 0.00 0.00
3:52 am 03:52 Cloudy 32 0 22 -5.6 66 66 N 7 11 30.48 1032 10 16 0.00 0.00
4:52 am 04:52 Mostly Cloudy 30 -1.1 21 -6.1 69 69 N 6 9 30.49 1032 10 16 0.00 0.00
5:52 am 05:52 Mostly Cloudy 30 -1.1 21 -6.1 69 69 NW 6 9 30.51 1033 10 16 0.00 0.00
6:52 am 06:52 Mostly Cloudy 28 -2.2 22 -5.6 78 78 NW 6 9 30.54 1034 10 16 0.00 0.00
7:52 am 07:52 Sunny 30 -1.1 23 -5 75 75 Calm 30.55 1035 10 16 0.00 0.00
8:52 am 08:52 Sunny 35 1.7 22 -5.6 59 59 N 3 6 30.57 1035 10 16 0.00 0.00
9:52 am 09:52 Sunny 37 2.8 22 -5.6 54 54 NNE 5 7 30.58 1036 10 16 0.00 0.00
10:52 am 10:52 Sunny 38 3.3 21 -6.1 51 51 SSE 3 6 30.59 1036 10 16 0.00 0.00
11:52 am 11:52 Sunny 42 5.6 21 -6.1 43 43 NNE 5 7 30.58 1036 10 16 0.00 0.00
12:52 pm 12:52 Sunny 45 7.2 21 -6.1 39 39 Calm 30.55 1035 10 16 0.00 0.00
1:52 pm 13:52 Sunny 45 7.2 21 -6.1 39 39 SE 5 7 30.52 1034 10 16 0.00 0.00
2:52 pm 14:52 Sunny 47 8.3 15 -9.4 28 28 SSE 6 9 30.50 1033 10 16 0.00 0.00
3:52 pm 15:52 Sunny 49 9.4 17 -8.3 28 28 VRB 5 7 30.49 1032 10 16 0.00 0.00
4:52 pm 16:52 Sunny 49 9.4 18 -7.8 29 29 S 7 11 30.47 1032 10 16 0.00 0.00
5:52 pm 17:52 Mostly Sunny 48 8.9 17 -8.3 29 29 S 6 9 30.46 1032 10 16 0.00 0.00
6:52 pm 18:52 Mostly Clear 44 6.7 19 -7.2 37 37 S 5 7 30.46 1032 10 16 0.00 0.00
7:52 pm 19:52 Clear 43 6.1 21 -6.1 42 42 SSE 5 7 30.47 1032 10 16 0.00 0.00
8:52 pm 20:52 Clear 40 4.4 19 -7.2 43 43 S 6 9 30.48 1032 10 16 0.00 0.00
9:52 pm 21:52 Mostly Clear 39 3.9 20 -6.7 46 46 S 7 11 30.49 1032 10 16 0.00 0.00
10:52 pm 22:52 Clear 36 2.2 21 -6.1 55 55 S 3 6 30.49 1032 10 16 0.00 0.00
11:52 pm 23:52 Clear 35 1.7 21 -6.1 57 57 S 6 9 30.48 1032 10 16 0.00 0.00

Powered by AerisWeather